Theta_e
296 288 286 285 289 292 293 292 292 293 292 291 290 289 288 288 289 291 293 295 295 292 290 292 290 289 291 293 296 298 298 296 295 295 294 296 297 297 296 296 296 295 295 296 296 297 297 297 298 299 299 299 299 299 300 301 301 302 302 301 301 303 305 308 310 309 308 308 306 305 306 305 306 306 306 309 308 307 307 305 306 306 308 307 307 306
296 288 287 291 294 294 295 294 293 292 291 290 290 288 288 288 289 292 293 296 294 292 287 288 289 291 292 294 297 299 296 296 294 293 295 295 296 296 295 294 294 295 295 296 295 296 296 296 297 297 297 297 296 297 298 298 299 300 301 300 300 301 302 302 304 306 307 306 305 306 305 304 304 305 305 306 307 306 306 304 304 305 304 304 305 305
289 288 292 294 296 295 294 294 294 293 292 291 290 288 287 288 289 292 293 294 293 292 288 287 289 290 293 295 297 296 295 294 296 296 295 295 294 295 294 294 293 293 293 294 294 294 294 295 295 296 296 296 296 296 296 297 298 298 299 300 300 300 300 300 301 303 304 304 304 304 302 302 302 302 303 303 304 305 305 303 303 303 303 303 303 302
286 289 294 296 295 294 294 294 293 293 292 290 289 286 287 289 288 284 288 291 293 292 289 289 289 290 292 295 295 296 295 294 296 296 295 295 294 293 293 293 293 292 292 292 292 293 293 294 294 295 295 295 295 295 295 296 296 297 297 298 298 299 299 300 300 300 301 302 301 301 301 301 302 301 300 301 301 301 303 302 300 300 301 301 301 301
291 293 296 296 294 294 293 294 292 290 288 288 290 288 288 288 289 288 288 291 291 291 291 288 288 286 290 292 292 292 294 295 294 295 295 295 295 294 294 293 293 292 292 291 292 292 292 292 292 293 294 295 294 295 294 295 295 296 296 296 297 298 298 299 299 299 299 301 301 301 301 299 297 296 298 297 296 296 297 300 301 301 299 300 299 299
293 296 298 296 295 294 292 291 291 291 287 287 289 292 291 291 290 289 289 288 284 283 286 288 280 278 286 290 290 292 291 292 292 292 292 293 293 293 292 292 292 292 292 291 291 291 291 291 292 292 293 293 294 294 295 295 295 295 295 296 296 297 297 297 298 298 298 298 297 297 297 295 294 294 295 295 296 297 297 299 297 298 298 298 298 297
293 296 296 295 294 292 291 290 290 292 287 286 288 291 292 291 290 289 288 286 279 279 286 289 281 278 284 288 290 291 289 290 291 291 291 292 292 291 291 291 291 291 291 291 291 290 290 290 290 291 291 292 292 293 294 295 295 295 295 295 295 295 296 297 297 297 298 297 297 296 296 295 295 294 295 295 296 296 297 298 299 298 297 298 298 297
294 293 292 292 293 290 289 289 291 293 288 285 287 291 290 290 290 288 288 286 283 283 285 289 286 281 280 284 292 290 289 288 289 290 290 290 290 290 290 290 290 290 290 289 289 289 289 289 289 289 290 291 292 292 293 293 294 294 294 294 294 295 295 295 296 296 296 296 296 295 295 295 295 294 295 296 297 297 296 296 297 297 297 296 297 297
294 290 290 290 290 288 289 291 291 293 289 286 290 291 289 290 288 287 287 283 282 282 279 283 286 281 278 282 289 289 287 286 287 288 288 289 289 289 289 290 289 289 289 289 288 288 288 288 288 289 289 290 290 291 291 292 292 293 294 294 294 294 294 295 295 295 295 295 294 294 294 294 294 294 295 295 296 296 296 295 295 295 295 296 295 296
294 293 292 292 289 288 290 289 292 293 290 291 291 291 289 289 289 288 284 284 281 280 275 281 285 278 279 284 287 287 286 286 286 287 288 288 288 288 288 289 289 289 289 289 288 288 288 288 288 288 288 288 289 290 291 291 291 292 292 292 293 293 294 294 294 294 294 294 294 293 293 292 292 293 294 294 294 294 294 294 294 294 294 293 294 294
294 294 296 294 291 292 290 291 290 294 292 292 290 288 284 284 284 282 282 281 279 274 279 284 285 284 277 282 285 285 285 288 287 287 287 287 287 287 287 287 288 288 287 288 288 287 287 287 287 288 287 287 288 289 289 290 290 290 290 291 291 291 293 293 293 293 293 293 293 292 292 292 291 292 292 292 292 292 293 292 293 293 293 293 292 292
292 291 292 291 296 293 291 290 290 290 290 289 285 282 284 283 279 281 278 278 274 272 277 281 284 285 276 277 284 286 288 290 289 286 286 286 286 286 286 286 286 286 286 286 286 286 286 286 286 286 286 286 286 287 288 288 289 289 289 289 289 290 291 291 292 292 292 292 292 292 291 291 291 291 291 291 290 291 291 291 291 292 292 292 292 292
286 287 288 293 296 295 290 289 286 286 287 286 282 283 280 273 276 271 274 272 272 274 277 281 282 281 282 284 286 286 287 288 289 288 287 286 285 285 285 285 285 285 285 285 284 285 285 285 285 285 285 285 285 285 286 287 287 287 287 287 288 288 289 290 290 290 290 291 291 291 291 291 291 291 290 290 290 290 290 290 290 290 290 291 291 291
285 284 289 290 292 293 291 287 281 285 284 284 284 279 276 273 271 267 269 272 272 275 280 283 284 280 282 284 286 285 286 287 287 287 287 286 285 285 285 285 285 284 284 284 284 284 284 284 284 284 285 285 284 284 285 286 286 286 286 286 286 286 288 289 289 289 289 289 289 290 290 290 291 290 290 290 290 290 290 290 289 289 289 289 289 290
279 281 284 289 287 291 292 292 290 285 283 285 284 285 281 277 273 271 272 271 273 274 278 280 278 275 277 280 284 285 285 286 286 286 285 285 284 284 284 284 283 283 283 283 283 283 283 284 284 284 284 285 285 285 285 285 285 285 285 285 285 285 286 287 288 288 288 288 288 289 289 289 289 290 290 289 290 289 289 289 289 289 289 289 289 289
284 284 285 292 290 291 290 292 292 286 284 284 284 285 280 281 282 278 278 274 271 275 275 275 277 276 280 285 285 285 285 285 285 285 285 284 284 284 283 283 283 283 283 283 282 283 283 283 283 284 284 284 285 285 285 285 285 285 284 284 284 285 285 286 286 287 287 287 288 288 288 288 288 289 289 288 289 289 289 288 288 288 288 288 288 289
283 279 288 292 290 289 289 290 293 291 280 283 286 280 283 284 286 278 277 278 276 276 276 276 280 281 284 285 284 284 284 283 284 284 283 284 283 282 283 283 283 283 282 282 282 282 283 282 283 284 284 285 285 285 286 286 286 286 286 286 285 286 286 286 286 286 287 287 287 287 287 288 288 288 287 288 287 288 288 288 288 288 288 288 288 288
283 281 288 287 289 290 287 289 290 291 288 284 281 283 284 288 286 282 273 272 274 273 274 280 275 277 278 272 282 282 281 282 282 282 283 283 282 282 283 283 283 283 283 283 283 283 283 284 283 283 284 283 284 284 285 285 285 285 286 286 285 285 286 286 287 287 287 287 286 286 286 286 287 287 287 288 287 287 287 287 288 288 287 287 288 288
288 281 284 288 288 290 289 289 288 288 290 287 283 287 284 277 278 279 275 270 270 269 268 273 280 278 279 280 280 280 281 282 282 282 282 282 282 282 282 283 284 284 284 284 283 283 283 283 284 284 284 286 286 286 286 287 287 286 285 285 285 285 285 285 287 287 287 287 287 286 286 286 286 286 286 286 286 286 286 286 287 287 287 287 287 287
286 280 281 287 287 288 286 284 279 283 289 289 288 285 283 281 278 275 278 273 275 270 274 271 277 273 281 280 282 282 282 283 282 281 282 283 284 285 285 285 284 284 284 284 285 284 284 285 285 284 284 285 286 286 287 288 287 285 285 285 285 285 284 284 285 285 285 285 285 285 285 285 286 286 286 285 284 284 284 285 285 285 285 286 286 286
284 284 276 282 285 287 281 283 281 282 280 282 282 281 283 281 282 281 278 276 275 271 273 274 273 277 279 285 284 284 284 284 283 283 283 284 285 284 283 284 284 284 284 285 285 286 286 286 284 284 283 283 283 283 284 284 284 284 283 283 284 283 283 283 284 285 285 285 284 284 282 282 283 283 285 285 285 284 284 285 285 284 284 284 283 284
280 281 279 278 280 282 281 285 285 287 286 284 283 279 282 279 278 277 276 283 277 277 272 274 274 276 283 289 286 285 285 285 285 285 286 286 286 285 286 285 285 284 284 284 284 284 284 283 283 282 282 283 284 284 283 284 284 283 283 283 283 281 281 283 282 283 283 284 285 284 284 283 283 283 283 283 283 283 283 283 284 284 284 283 283 283
285 282 278 278 281 283 285 288 290 290 288 287 288 285 285 282 280 275 275 277 278 276 276 271 273 276 285 285 286 286 286 286 286 286 286 286 285 285 285 286 285 285 284 284 284 284 284 285 284 284 283 283 283 283 282 282 283 283 282 282 282 282 281 281 282 281 281 281 281 281 281 281 281 281 282 282 282 282 282 282 283 283 282 281 281 282
290 277 276 278 281 284 286 287 288 287 289 287 286 284 284 281 282 280 278 279 276 278 277 274 274 279 285 285 286 286 285 286 286 286 286 285 285 285 285 285 285 284 284 284 283 283 283 282 282 282 281 281 280 280 280 280 280 280 280 280 280 280 280 280 280 280 280 280 279 278 278 279 279 280 279 280 281 281 282 282 282 282 282 281 280 281
278 278 279 275 277 277 279 279 281 283 282 280 281 280 283 283 282 279 277 279 277 278 280 276 271 278 284 285 284 284 285 286 287 287 284 284 283 283 282 282 282 282 282 281 281 281 281 280 280 280 280 280 279 279 279 279 280 280 280 280 280 280 280 280 280 280 280 279 279 279 279 278 278 278 279 279 280 280 281 281 282 282 282 281 280 281
281 278 276 273 274 271 267 266 266 276 279 280 280 281 281 282 280 279 275 278 275 281 278 275 276 282 286 286 285 285 284 284 283 282 283 283 283 282 281 281 281 281 281 280 280 280 280 281 280 279 279 279 279 279 279 279 279 279 279 279 279 280 280 280 279 279 279 278 278 278 278 278 277 278 278 278 279 280 280 281 281 281 281 281 280 280
278 279 279 278 277 276 277 272 280 280 279 276 279 279 281 281 281 282 281 278 275 279 278 279 279 279 282 284 283 283 283 284 283 283 282 282 281 281 281 281 281 280 279 278 279 279 278 279 279 279 278 279 279 279 279 279 279 278 278 278 278 278 279 279 279 279 279 279 278 278 278 277 278 278 278 278 279 279 279 279 280 279 280 280 280 279
278 279 277 276 277 279 280 280 281 283 279 280 278 280 282 281 278 275 276 275 279 276 274 282 282 279 280 282 283 281 281 283 283 282 282 281 281 281 281 280 284 279 279 278 278 278 279 279 278 279 279 279 279 279 279 279 279 280 279 280 279 279 279 281 280 279 279 278 279 278 279 278 278 278 279 279 278 278 279 279 279 279 279 279 279 279
277 275 275 279 276 279 280 281 280 280 280 279 280 279 279 280 279 276 275 278 279 275 274 279 280 276 279 281 281 279 281 281 282 284 284 283 281 281 280 280 279 279 279 279 279 278 278 279 279 279 279 279 279 279 279 279 279 279 278 278 279 279 279 279 280 279 278 278 278 279 279 280 280 281 281 280 280 279 279 279 278 279 279 278 279 279
274 271 274 278 275 276 279 278 279 279 278 279 278 279 279 279 279 278 278 279 278 277 279 279 278 278 281 282 281 282 282 280 279 279 280 281 280 280 279 279 279 279 278 279 279 278 277 278 278 278 279 279 279 278 279 279 279 279 279 280 279 279 279 279 278 278 278 278 278 278 279 279 279 280 280 280 280 280 280 280 280 280 279 279 279 279
280 273 279 272 271 268 274 277 277 277 277 275 278 279 279 279 278 278 278 278 278 277 278 277 277 277 282 280 281 280 279 278 278 278 278 278 279 279 278 278 277 277 277 277 277 278 278 278 278 278 278 278 278 279 279 279 279 279 279 279 278 278 278 277 278 277 277 278 278 278 278 278 279 279 279 279 279 280 280 280 280 280 279 279 279 279
278 270 273 272 267 265 271 273 273 273 274 273 274 276 276 276 275 277 276 278 277 275 277 275 273 275 279 279 279 277 276 276 276 276 276 276 276 276 276 276 276 277 277 277 277 277 277 277 278 278 278 278 278 279 279 279 279 279 279 278 278 277 277 277 277 276 277 277 277 277 278 278 278 278 278 278 278 279 279 279 279 278 278 278 278 279
273 271 271 268 271 270 275 272 272 273 272 269 272 275 277 277 277 278 278 278 278 278 274 272 273 278 278 279 278 276 275 276 275 275 275 276 275 275 275 275 275 275 276 276 277 277 277 278 278 278 278 278 278 279 279 278 278 278 277 277 276 276 276 276 276 276 276 276 276 276 276 277 277 277 277 277 277 277 277 277 277 277 277 277 278 278
276 277 273 276 272 272 274 272 272 269 263 266 275 278 278 276 277 275 276 277 278 279 276 278 277 278 275 275 276 275 274 274 276 277 276 277 277 276 275 275 275 276 276 276 277 277 277 278 278 278 278 278 278 278 278 277 276 276 275 275 275 275 275 275 275 275 275 275 275 275 275 275 275 275 275 275 275 275 274 274 274 275 276 276 276 276
280 280 276 278 272 270 270 269 268 264 266 273 278 279 279 278 277 276 277 276 274 271 273 273 273 274 277 277 277 276 275 276 276 276 276 276 277 277 277 276 276 276 277 277 277 277 278 278 277 277 277 277 277 276 275 275 274 274 274 274 274 274 274 274 274 274 274 274 274 274 273 273 273 273 273 273 272 272 272 272 273 273 273 273 273 273
276 277 276 276 275 273 269 267 262 264 276 277 277 276 274 276 275 275 273 276 276 276 277 276 276 276 278 276 275 275 275 276 275 276 276 276 277 277 277 276 277 276 277 277 277 278 278 277 277 277 277 276 275 274 273 273 273 272 272 273 272 273 273 272 272 272 272 272 272 272 272 272 271 270 270 270 270 269 270 270 270 269 270 270 270 270
279 275 275 270 278 268 270 269 269 274 274 275 275 276 276 275 275 273 269 273 272 273 275 274 275 273 274 273 274 275 275 273 273 274 276 277 279 277 278 278 276 276 277 277 277 278 278 277 276 276 275 273 273 272 272 272 271 271 271 271 271 271 271 271 270 270 271 270 271 271 270 270 268 268 267 268 267 267 266 266 266 266 267 266 266 267
280 276 277 271 268 274 268 266 265 264 264 269 274 277 277 277 276 276 271 267 270 269 273 274 274 271 272 273 274 275 274 271 271 272 277 277 278 279 278 279 277 277 276 277 277 277 276 275 275 274 274 272 271 271 271 271 270 270 269 269 269 269 268 268 268 269 269 269 268 268 268 267 266 266 265 265 264 264 264 264 264 264 265 264 264 264
277 280 277 275 271 273 270 267 266 265 267 269 269 273 275 273 274 271 267 264 270 268 267 274 271 271 273 273 273 272 269 266 267 273 275 275 276 277 278 278 277 277 277 277 276 275 275 274 273 273 272 271 270 270 270 269 268 267 266 267 267 267 267 267 267 267 267 266 266 266 266 265 264 264 263 262 262 262 262 262 262 263 263 263 263 263
273 271 274 272 271 272 270 268 266 268 264 269 271 274 275 275 275 271 262 258 270 272 270 274 274 274 274 274 274 272 270 263 268 273 275 276 277 277 277 278 276 276 276 275 274 274 273 273 272 271 270 269 269 269 268 267 266 265 266 266 266 265 265 266 266 266 265 265 265 264 264 263 263 262 262 261 261 261 261 262 262 261 261 261 261 261
264 265 271 270 271 272 273 269 270 270 271 270 272 275 276 273 272 263 262 265 271 272 272 274 274 275 274 274 274 268 273 275 276 277 275 275 276 276 276 276 276 275 275 274 274 275 272 271 271 270 269 268 268 267 266 265 264 264 264 265 264 263 265 265 265 264 264 264 263 262 262 262 261 261 261 261 261 261 261 261 261 261 260 260 260 260
260 260 261 267 267 268 269 268 269 270 271 273 274 276 276 273 263 262 271 274 273 273 274 275 275 275 275 275 274 275 276 276 276 275 275 275 276 276 275 275 274 273 274 274 273 271 270 270 268 268 267 267 266 266 265 264 262 263 263 263 262 263 264 264 263 263 262 262 261 261 260 260 260 260 260 260 260 259 259 260 260 260 259 259 259 259
266 263 260 264 266 265 262 264 264 261 270 276 276 274 275 267 268 275 274 275 274 276 276 275 276 276 276 275 276 276 276 275 275 275 275 274 275 275 274 274 273 273 272 270 269 270 269 267 267 266 266 266 265 265 265 262 260 261 261 261 262 263 263 263 262 262 261 261 260 260 259 259 259 259 260 259 259 259 258 259 258 258 259 258 258 258
271 260 258 262 268 261 264 262 262 268 273 274 276 268 271 277 276 274 275 273 275 275 276 277 276 277 276 277 276 275 275 275 274 273 274 274 274 274 273 272 272 271 270 269 268 267 265 265 265 265 265 264 264 263 263 260 260 260 260 260 262 262 262 261 261 260 259 259 259 259 259 259 259 259 259 259 259 258 257 257 257 258 258 258 258 258
272 268 267 267 268 266 265 265 271 275 277 276 278 278 277 278 277 276 276 276 276 276 276 276 277 277 276 276 276 276 275 274 275 274 275 275 274 273 272 272 271 270 269 268 266 265 264 264 263 263 262 264 262 262 261 260 259 259 259 261 261 261 260 260 259 258 258 258 258 258 258 258 258 258 258 258 258 257 257 257 257 257 257 258 257 257
272 274 273 270 270 273 272 274 275 275 275 275 278 279 278 278 277 275 276 275 275 277 277 277 277 277 276 276 276 274 275 274 274 273 273 273 272 272 271 270 268 267 266 265 264 264 262 262 261 260 261 261 262 261 261 259 258 257 259 261 261 260 259 258 258 258 258 258 258 258 258 258 258 258 258 258 258 258 258 258 258 257 257 257 257 257
274 275 272 270 273 269 262 273 274 275 275 276 277 276 277 277 277 277 275 276 277 277 276 277 278 277 277 275 276 276 275 274 274 274 273 271 271 270 269 268 267 266 264 263 264 262 261 260 260 260 260 259 260 260 259 257 258 259 260 259 260 260 259 257 257 257 257 257 258 258 258 257 257 258 258 258 258 258 258 258 258 257 257 257 256 256
270 275 272 273 271 270 268 274 274 275 276 277 276 275 275 276 277 277 278 278 278 278 277 277 276 276 275 274 276 275 274 274 273 273 272 271 270 269 268 267 266 265 264 264 263 260 259 260 259 259 258 259 260 258 258 257 258 258 258 258 259 258 257 257 257 257 257 257 257 258 258 257 259 258 258 258 258 258 258 258 257 256 256 256 256 256
274 275 267 269 270 272 274 275 277 277 277 277 276 275 276 277 277 276 276 277 277 276 276 276 276 277 276 277 275 274 272 272 273 273 271 270 268 268 267 265 264 263 263 262 260 259 259 259 257 257 257 258 258 257 256 256 257 257 258 259 258 257 256 257 257 257 257 257 257 257 258 258 258 258 258 258 258 258 258 257 257 257 258 259 260 260
273 271 274 270 266 266 268 273 275 268 270 275 277 278 277 277 277 277 277 276 275 275 275 275 274 273 274 274 274 273 272 272 270 270 269 269 268 266 265 264 262 262 261 261 259 259 258 258 257 256 257 258 258 257 256 256 257 257 258 258 257 256 256 257 257 257 257 257 257 257 258 258 258 258 258 258 257 257 258 261 264 263 261 261 265 268
274 275 274 271 271 270 275 277 277 277 276 277 278 278 277 277 277 276 276 277 276 276 276 275 274 271 271 271 271 272 271 271 269 269 267 266 265 265 264 262 262 261 261 259 258 257 257 257 256 256 255 257 256 256 256 257 257 257 257 258 258 257 256 256 257 257 257 257 257 258 258 258 257 258 258 258 258 257 257 257 259 264 266 267 267 268
Wind_Speed
4 4 5 6 10 12 12 12 12 10 6 6 3 3 6 6 6 4 4 6 1 3 5 7 4 3 6 9 14 17 8 6 7 5 5 8 9 10 9 10 10 12 10 6 9 12 13 14 13 12 11 11 14 14 14 15 15 14 12 13 12 9 10 8 7 7 7 6 4 4 5 2 3 4 4 5 4 2 1 3 3 4 5 5 5 5
3 3 8 13 12 11 11 7 5 6 5 5 5 4 6 4 8 3 5 5 3 1 2 3 4 6 8 11 17 16 8 10 5 5 8 10 11 9 10 10 10 8 5 8 13 14 14 14 14 12 12 13 16 14 14 14 13 12 13 12 11 10 10 10 7 7 7 5 2 4 2 2 3 4 3 2 3 3 3 2 1 1 2 4 4 5
4 8 13 12 10 6 4 4 5 5 6 4 4 2 3 7 2 6 6 1 1 3 6 4 5 8 10 12 18 11 6 4 5 7 5 11 10 9 9 9 8 10 10 12 12 13 14 14 13 11 11 12 11 12 13 12 14 13 11 10 10 10 9 9 9 8 6 6 7 6 4 4 3 3 2 3 2 2 2 3 1 1 2 3 3 4
2 8 15 10 3 4 6 6 6 6 4 4 5 4 8 3 2 6 5 4 4 1 4 4 8 8 7 13 13 8 7 5 9 13 12 10 12 11 10 8 9 10 11 13 12 13 13 12 11 12 12 11 12 13 13 13 12 10 10 10 10 10 10 9 9 8 5 4 4 4 5 4 6 3 3 4 5 5 3 3 2 1 1 2 3 2
12 6 5 4 4 5 7 8 6 4 6 2 3 4 5 4 4 7 5 3 3 5 1 3 3 5 6 13 6 6 5 11 7 12 11 10 11 9 9 12 10 11 10 11 12 11 11 12 12 11 10 9 12 12 12 11 10 8 10 10 9 9 9 9 10 10 9 10 9 8 7 6 5 5 7 6 5 3 2 1 1 0 0 1 2 2
12 6 1 2 4 4 5 6 5 4 4 3 4 8 8 5 6 4 2 3 6 5 2 4 6 3 6 8 10 3 4 8 4 10 9 9 8 8 12 10 8 9 9 11 10 9 8 9 9 10 11 12 11 12 10 9 10 10 10 11 10 10 10 10 10 9 8 8 8 8 8 8 6 6 7 7 4 6 3 2 1 1 0 0 0 1
7 1 5 8 7 4 2 4 3 4 5 1 7 4 7 6 3 0 2 3 1 1 2 3 0 9 2 4 6 2 7 7 4 7 8 8 8 9 9 7 8 8 9 9 9 8 10 9 10 11 12 11 12 10 7 9 10 11 10 10 10 10 10 10 10 11 9 9 8 7 7 6 6 6 4 3 3 5 5 1 1 1 1 0 1 2
2 0 5 3 3 3 3 4 4 7 4 4 2 2 3 2 1 1 0 2 6 1 4 2 4 8 5 4 12 6 8 6 6 6 7 7 8 9 9 8 7 7 8 8 8 9 8 9 9 10 9 9 9 7 8 9 9 11 11 11 11 10 11 11 10 11 10 9 8 9 8 7 7 6 5 6 6 6 6 4 3 2 3 2 2 2
2 1 3 2 1 3 6 6 2 5 6 4 1 3 1 1 1 1 0 2 2 2 7 5 3 1 5 7 1 11 8 3 5 5 5 6 7 8 8 8 7 6 7 8 8 8 8 8 8 7 9 6 8 9 9 9 8 8 10 11 12 13 12 11 12 11 12 10 9 8 8 9 7 7 7 6 7 8 7 8 8 6 4 3 3 2
1 2 6 7 5 6 6 3 2 8 3 3 2 2 3 1 1 1 1 0 3 1 6 5 5 4 8 7 3 1 5 7 6 6 5 5 6 6 7 5 5 4 6 7 8 6 7 6 7 6 6 9 8 7 7 7 8 9 10 13 14 13 11 10 12 12 12 11 10 11 10 10 9 8 8 8 9 8 8 8 8 8 8 7 5 4
1 2 5 3 5 5 3 0 1 1 2 2 4 2 4 5 2 1 2 2 2 2 7 8 8 7 5 4 4 9 7 7 9 6 5 6 7 6 6 5 3 4 5 6 7 6 6 5 5 6 10 8 8 8 9 9 9 9 10 11 14 11 10 11 11 12 13 12 12 11 10 11 10 10 8 9 10 9 9 9 8 8 7 7 7 6
1 1 1 3 2 3 3 2 3 1 1 3 2 2 5 6 4 2 2 3 1 6 6 6 7 9 6 4 3 3 1 13 15 15 10 8 7 5 4 3 3 4 4 5 5 6 4 5 7 8 10 9 8 9 10 9 9 10 9 10 13 12 11 10 10 12 12 11 12 11 11 12 11 10 9 10 10 9 9 8 9 8 8 8 7 8
2 6 3 1 2 9 1 1 3 3 2 3 3 3 1 5 4 2 2 1 5 7 3 1 3 1 9 4 1 6 7 5 4 8 12 11 8 6 4 4 2 3 4 4 4 5 6 7 8 9 8 9 9 7 7 8 8 8 10 10 12 11 9 9 10 11 11 12 12 11 11 10 9 10 10 9 9 9 8 8 9 9 9 8 9 9
7 2 1 4 3 3 7 5 1 1 1 6 4 4 3 1 1 3 5 2 3 6 5 0 0 3 3 2 5 4 5 6 11 9 8 9 8 7 5 3 3 3 4 4 4 5 5 5 5 6 6 6 6 7 8 9 9 7 8 8 9 8 8 7 9 10 11 11 10 10 10 9 8 9 9 9 9 8 8 7 8 8 8 8 8 8
4 6 5 4 3 1 6 9 8 5 7 9 4 9 8 6 2 4 3 5 5 5 2 4 2 5 2 1 2 4 4 8 8 9 7 6 4 4 4 4 3 4 3 3 4 4 5 5 5 5 5 5 5 7 8 8 8 8 9 8 9 9 10 9 8 8 9 8 8 8 8 8 8 8 8 8 7 8 9 8 8 8 7 7 7 8
8 8 5 3 1 4 7 1 3 4 2 2 3 4 3 6 3 6 3 2 3 3 4 2 4 2 2 2 3 3 5 7 6 7 7 6 4 4 4 3 3 3 3 3 4 5 5 4 4 4 4 5 5 6 7 8 7 8 6 6 7 6 6 8 8 7 7 7 7 8 9 8 7 6 5 6 7 7 6 7 7 8 8 7 7 8
0 4 0 1 4 4 4 1 1 2 2 1 4 4 5 2 3 1 4 1 1 1 8 2 4 1 0 1 3 2 6 5 4 4 5 5 4 3 3 3 3 3 3 3 4 4 4 3 3 3 4 5 6 6 6 6 6 7 8 9 10 9 8 8 6 6 6 6 8 9 8 8 8 8 8 7 7 6 6 5 6 6 7 7 7 8
5 6 1 4 2 1 1 1 0 0 4 5 2 6 1 1 2 2 4 2 3 7 7 3 5 4 3 5 3 1 5 3 3 4 3 4 3 4 3 3 3 3 3 3 3 3 3 3 3 4 4 4 4 4 5 6 4 5 6 7 8 9 11 10 10 9 9 8 8 8 8 7 7 7 6 6 6 4 4 4 4 4 6 6 6 6
3 6 4 2 1 2 1 1 4 1 1 3 3 1 1 4 3 2 4 3 3 4 5 3 7 6 7 7 5 6 8 6 5 4 4 3 3 4 3 3 3 3 2 3 3 3 3 3 4 4 4 4 4 3 3 4 4 5 4 5 4 5 5 5 6 7 8 8 7 7 8 8 7 6 5 5 5 5 5 6 6 5 5 5 6 6
1 3 6 1 2 1 1 3 3 2 3 2 2 1 1 2 4 3 5 4 3 6 4 4 5 6 4 3 10 10 9 11 8 7 7 8 6 6 5 5 4 4 3 3 3 3 3 4 3 2 3 3 3 3 3 3 3 4 4 4 4 4 5 6 7 7 8 7 6 7 6 7 7 8 8 7 5 5 3 3 3 4 5 6 5 5
2 2 6 1 4 1 1 1 5 6 3 1 1 2 1 0 3 2 2 3 3 3 4 6 7 5 3 2 8 11 12 11 10 9 5 6 6 5 5 5 4 3 3 3 3 2 3 2 1 0 0 1 2 2 2 1 1 0 1 1 1 1 1 2 2 2 3 2 3 3 3 4 4 5 4 5 6 6 7 7 7 6 4 4 4 3
1 1 7 3 2 3 5 3 3 5 6 1 3 4 5 1 4 6 9 1 1 2 4 5 11 4 3 3 5 10 9 8 7 9 9 8 8 7 5 5 4 4 3 3 3 3 2 2 2 2 1 0 1 2 1 2 1 2 1 1 0 1 1 0 2 1 2 3 2 2 3 3 2 2 3 2 3 3 4 4 5 6 7 8 8 6
3 2 3 4 6 7 5 5 1 2 3 6 5 7 4 2 3 2 6 4 1 4 2 3 1 5 1 1 3 6 7 8 8 8 8 7 6 6 6 5 5 6 4 4 4 3 2 1 1 1 1 1 2 2 2 3 3 3 3 2 2 1 2 1 2 2 2 2 3 3 3 3 3 3 4 3 5 4 5 4 4 4 3 5 6 6
9 2 1 5 5 5 4 2 2 4 1 1 1 3 2 3 4 5 3 1 2 2 6 4 5 2 1 1 2 4 5 6 4 7 5 3 5 6 6 5 5 4 4 4 4 3 4 4 2 1 2 2 3 2 3 3 3 4 4 4 3 3 4 4 4 3 2 3 3 4 3 3 3 3 4 4 5 4 5 5 4 4 4 5 4 6
2 4 6 1 4 6 9 5 4 4 6 2 1 2 1 1 2 1 2 1 2 4 9 5 10 8 0 0 2 4 4 4 4 3 5 6 4 5 5 4 4 4 4 4 4 4 4 3 2 3 4 4 3 3 3 3 3 2 3 3 3 4 4 4 4 3 4 3 4 4 4 4 4 4 4 5 4 5 5 5 5 4 5 5 5 6
4 4 5 4 7 7 6 4 2 1 1 1 0 1 1 2 4 3 1 1 3 1 4 1 6 2 2 4 2 2 1 2 4 3 3 4 7 7 5 4 5 4 5 5 5 4 5 5 5 4 4 4 4 4 4 4 3 3 4 4 4 4 4 4 4 4 3 3 3 3 3 4 4 4 5 5 5 6 7 7 6 6 5 5 7 6
2 0 3 6 8 10 9 2 1 5 2 1 7 4 9 7 3 3 3 4 7 4 8 9 9 8 13 13 4 4 4 6 6 5 6 4 3 5 5 5 5 5 4 5 5 5 3 3 5 6 5 5 5 5 5 4 4 4 3 3 3 3 2 2 1 1 1 1 1 2 3 3 4 4 4 4 5 5 5 6 7 7 8 7 7 8
1 1 4 4 6 7 3 3 3 1 2 5 5 10 10 8 4 2 6 7 2 2 12 9 9 5 10 11 12 1 4 6 6 5 6 5 6 7 5 4 3 3 2 2 3 4 5 6 6 5 5 5 5 5 4 4 4 4 4 4 4 4 3 2 1 3 4 4 5 5 6 4 4 4 5 5 5 5 6 6 6 7 7 7 7 8
3 3 3 4 3 6 4 4 3 2 2 3 6 9 13 13 10 11 6 5 6 9 14 13 10 8 12 15 8 4 6 6 6 9 8 6 6 5 5 5 5 4 4 3 4 5 5 5 5 5 5 4 4 4 5 5 4 4 4 4 5 4 4 2 1 3 3 4 5 6 6 8 8 8 9 8 8 7 7 6 6 6 6 6 7 7
4 3 3 1 4 5 7 4 2 4 4 5 7 11 13 14 15 8 8 11 9 9 11 11 10 14 14 12 3 6 5 4 2 1 4 6 6 6 5 5 5 5 4 4 5 4 4 4 4 4 4 4 4 5 7 7 7 6 6 7 6 5 6 5 5 5 5 5 5 6 6 7 8 9 11 13 13 13 12 11 10 10 10 10 9 8
5 6 5 1 1 3 3 3 1 1 3 5 10 12 14 15 11 9 12 8 7 7 9 8 9 14 11 1 3 2 3 3 3 3 3 4 5 6 5 5 4 4 4 4 2 1 3 4 5 5 6 5 5 4 3 3 4 4 4 4 4 4 4 5 6 5 5 6 5 6 6 7 8 9 10 11 11 12 13 14 12 12 12 12 11 12
3 4 2 1 1 4 1 3 1 3 4 6 13 19 19 12 11 12 10 8 9 11 9 6 9 12 9 6 0 1 3 4 4 4 5 4 4 5 4 3 3 2 2 2 3 4 5 5 5 5 4 4 3 2 2 3 4 4 4 4 5 4 4 5 5 5 5 5 5 6 8 8 9 10 10 9 10 10 10 11 12 13 13 13 13 12
3 4 1 1 1 5 4 4 2 1 4 8 17 22 15 11 12 7 7 8 8 6 6 9 11 8 8 5 5 2 2 3 4 3 3 1 2 3 3 4 4 4 4 4 4 4 5 5 5 5 4 3 3 3 2 2 4 4 4 5 4 4 6 6 6 6 7 7 6 6 7 7 8 9 9 9 9 9 9 10 11 13 13 14 13 13
3 6 4 3 5 5 3 3 2 2 4 15 1 2 6 7 5 8 11 10 10 8 6 6 8 6 4 5 7 5 4 4 3 1 2 3 1 3 3 3 3 4 4 4 4 4 5 5 4 3 3 3 2 2 2 4 4 3 3 4 5 7 6 7 8 7 7 7 6 6 6 7 7 9 9 8 8 9 11 12 12 12 11 12 13 14
5 4 4 3 4 3 3 4 2 7 16 5 2 4 3 4 4 9 9 9 7 4 4 3 2 3 7 6 6 6 5 3 2 2 1 3 3 4 5 4 2 4 4 4 4 4 5 5 4 3 3 3 4 4 5 6 5 4 6 7 8 6 7 7 7 7 7 8 8 7 7 8 8 8 8 9 9 11 11 11 12 12 11 11 12 13
5 6 3 2 3 1 3 5 4 13 7 3 8 3 1 2 4 1 7 9 9 9 9 7 8 9 7 4 3 3 3 0 0 1 2 3 4 5 3 3 5 4 4 5 5 5 6 4 4 4 4 3 6 5 6 5 4 6 6 5 6 6 6 6 7 7 7 8 8 8 8 8 9 10 10 10 11 11 11 11 11 12 11 12 12 12
9 3 5 4 4 7 7 9 15 8 14 18 15 7 4 7 6 6 9 9 7 4 6 3 4 4 4 4 4 2 1 1 2 3 1 2 2 3 4 3 6 5 5 4 5 6 5 5 4 4 5 5 6 6 5 4 5 5 5 6 5 6 6 7 8 8 8 8 7 8 8 9 9 11 11 11 11 11 11 11 12 11 10 12 13 12
6 10 4 6 5 6 4 6 5 3 9 13 3 1 1 2 3 3 5 6 3 3 1 4 5 4 5 4 4 1 2 2 4 2 1 1 1 3 1 1 3 3 4 5 4 5 4 4 6 5 7 7 6 5 3 4 5 5 5 5 6 6 7 6 7 7 7 7 7 9 9 9 9 11 11 11 11 12 12 10 9 10 9 11 13 13
0 4 5 9 3 5 6 9 9 9 9 3 1 3 1 2 6 3 2 6 4 3 4 6 3 5 7 7 4 3 2 2 6 5 7 3 3 2 1 3 0 4 5 6 7 5 4 5 6 6 7 6 6 4 3 4 4 5 5 5 6 6 7 7 7 6 7 9 9 9 8 8 9 10 11 12 12 11 12 12 11 11 9 11 10 13
6 2 5 7 9 8 7 7 10 4 5 4 5 3 4 3 4 3 3 7 1 3 4 7 8 10 7 5 5 3 4 4 5 7 4 7 5 3 2 2 2 4 4 4 4 5 5 4 5 6 6 5 3 2 3 3 3 4 5 6 5 6 6 6 5 6 7 8 8 7 8 8 9 10 10 12 13 12 11 11 11 11 11 12 10 12
3 1 6 14 11 13 15 8 5 7 3 3 6 5 4 1 4 2 10 8 4 5 4 6 8 9 7 6 5 3 7 7 7 6 3 2 1 1 1 2 4 6 6 5 5 5 5 5 6 6 5 4 3 3 3 3 4 4 4 5 5 6 6 5 6 7 7 8 8 8 8 8 8 11 11 10 11 12 11 9 12 12 11 11 12 11
1 3 4 1 8 10 8 10 12 6 4 5 6 7 4 2 3 7 8 5 6 6 6 8 9 8 8 8 7 7 7 6 5 3 2 4 3 1 4 5 5 5 5 5 5 5 5 5 5 4 3 3 3 2 2 2 4 4 5 4 5 5 5 6 7 7 7 7 8 8 8 8 9 9 10 10 10 12 12 9 11 11 12 10 11 13
9 7 6 7 3 0 1 7 5 8 2 9 6 2 1 4 7 7 3 3 5 7 10 8 8 8 8 7 7 7 6 5 5 6 6 3 3 2 6 5 6 6 6 4 4 3 4 4 4 2 2 1 1 2 2 3 4 5 4 6 7 5 6 6 7 7 7 8 9 9 9 9 9 10 9 10 10 12 13 12 11 12 11 12 13 13
4 4 3 5 6 6 7 8 7 6 4 5 9 7 5 11 7 6 6 4 5 5 6 7 7 9 9 8 7 6 7 7 4 4 4 4 3 2 4 4 4 5 5 4 4 3 4 4 2 1 0 1 1 1 2 3 4 4 6 8 6 5 6 6 6 7 8 8 9 9 9 9 9 9 9 10 11 11 11 12 10 11 9 11 11 12
7 8 8 7 4 8 7 5 5 6 7 7 9 9 8 7 5 6 6 7 6 6 6 6 9 9 9 8 8 8 7 7 6 5 4 5 3 6 6 5 5 5 5 5 4 3 3 3 1 1 1 1 1 2 1 1 4 6 8 8 4 6 7 7 7 7 9 9 9 9 9 9 9 10 9 9 9 11 10 11 10 11 9 10 10 11
4 7 2 2 5 2 2 4 1 1 3 4 8 9 9 8 7 5 6 5 5 8 8 9 8 9 8 8 8 6 7 6 5 4 4 3 4 4 4 5 4 4 5 4 3 3 2 1 1 3 4 2 1 1 1 2 3 7 8 7 6 7 7 7 8 9 10 10 9 10 10 11 10 9 9 9 8 9 9 10 11 10 11 10 10 11
6 6 3 6 2 0 6 3 6 7 6 8 9 6 5 5 7 6 5 6 7 7 7 8 9 9 9 9 10 9 8 5 5 5 4 4 5 5 5 5 4 4 4 3 3 2 1 2 4 5 5 4 1 1 1 3 4 6 7 7 8 7 7 7 9 10 10 10 10 10 9 10 10 10 9 8 9 8 9 9 9 9 10 10 11 10
7 6 6 10 6 7 7 5 7 9 11 9 6 6 7 9 9 8 8 7 8 8 7 9 8 8 6 8 10 8 7 6 6 6 5 6 6 5 5 5 6 4 3 4 3 2 1 2 4 5 5 5 3 2 3 4 5 6 6 6 7 6 7 8 8 10 11 12 10 9 9 10 9 10 10 9 9 10 10 9 9 9 10 11 10 11
5 2 5 4 6 6 5 9 15 14 11 12 7 5 7 9 8 7 7 9 9 8 8 6 8 10 10 12 8 7 6 6 8 7 6 5 5 5 5 5 4 3 3 1 1 2 2 2 4 4 4 6 4 3 4 5 6 5 6 6 6 7 7 9 9 10 10 10 9 10 9 9 9 10 10 10 9 9 9 10 10 11 11 12 9 10
2 12 7 4 3 3 8 12 8 4 9 11 10 12 11 10 8 10 10 8 7 7 7 7 6 4 6 6 8 7 8 7 6 5 6 6 6 5 5 4 3 2 1 2 1 1 1 2 2 4 5 6 4 4 4 5 5 5 6 6 6 6 7 9 10 9 10 9 9 9 9 9 9 9 10 10 10 11 11 14 22 16 14 13 21 28
12 15 8 8 10 12 13 14 10 10 10 10 11 8 7 7 8 10 11 11 10 10 9 9 8 4 5 6 4 7 7 7 6 5 4 4 4 4 4 4 2 1 0 1 2 2 1 2 2 4 5 6 4 4 5 6 7 6 6 6 6 6 7 8 9 9 9 9 9 10 11 10 10 10 9 10 10 10 11 12 14 23 25 24 26 26
Wind_Direction
139 129 166 194 218 217 218 212 216 230 223 243 265 277 258 254 271 278 275 269 13 339 247 254 291 302 292 294 289 283 312 314 300 331 60 86 88 82 76 73 67 58 54 37 43 39 35 32 29 30 30 29 36 32 33 38 36 39 41 44 36 24 31 37 35 37 44 36 20 30 38 39 9 25 21 39 18 44 87 146 156 170 175 178 181 182
88 147 224 217 217 222 226 223 238 264 249 229 236 242 270 232 276 271 293 290 349 145 287 330 351 307 292 292 284 290 319 314 324 104 105 91 85 80 76 71 64 70 61 44 41 36 37 31 29 30 30 27 34 25 33 39 38 38 38 40 38 33 34 34 37 43 47 37 75 86 25 69 31 20 26 9 1 21 23 50 109 156 172 184 193 193
172 202 233 226 228 252 282 256 240 238 263 271 241 230 318 276 240 289 277 2 334 358 267 303 323 291 289 284 280 290 329 21 39 92 88 96 84 78 72 70 69 59 52 48 48 42 39 36 32 32 32 32 32 32 34 32 39 37 36 34 36 36 39 32 30 40 45 50 42 60 36 47 57 43 56 69 348 34 62 45 44 114 155 182 209 207
198 256 245 243 212 238 275 261 253 266 266 252 288 292 261 259 6 298 293 335 336 59 283 295 295 285 281 270 273 333 88 74 69 78 74 73 83 78 69 69 69 62 54 51 44 42 38 39 35 32 33 30 34 34 31 28 33 36 35 34 36 35 35 32 29 38 33 73 97 74 73 56 84 85 24 36 25 16 24 17 14 51 130 176 208 219
209 216 206 233 221 193 233 256 258 250 264 284 197 222 249 273 236 196 261 319 298 320 61 7 309 294 242 259 295 65 76 87 72 84 78 74 79 84 81 65 57 65 61 60 51 43 41 40 35 32 31 35 42 39 37 31 29 32 32 33 39 42 38 34 31 32 36 30 25 15 20 30 16 4 22 18 350 357 358 341 1 319 89 162 207 221
256 250 257 259 258 232 210 251 238 180 255 296 229 209 221 209 244 272 324 32 17 330 328 56 342 307 249 243 270 143 67 69 42 78 70 69 69 71 67 66 63 59 53 62 58 52 47 48 40 33 32 37 40 40 36 35 35 33 31 29 30 35 35 34 33 34 44 49 49 41 42 32 24 18 13 9 336 325 309 247 286 348 23 111 293 265
231 283 172 217 231 220 191 229 233 142 202 103 269 206 214 210 202 201 337 49 341 207 270 87 132 276 274 252 256 134 101 80 61 66 74 69 67 67 69 65 63 61 55 47 50 48 49 39 40 37 34 29 38 33 29 39 41 41 38 34 35 34 32 28 31 34 38 45 46 54 60 58 49 32 0 340 344 332 299 280 290 287 313 234 189 269
177 140 78 68 133 182 224 263 249 164 142 233 251 96 107 111 220 215 133 172 242 247 298 295 176 251 292 273 245 116 108 113 85 77 72 73 70 67 69 62 54 56 65 62 46 38 44 52 51 44 32 32 28 24 32 38 37 41 40 43 41 40 36 31 29 35 34 45 40 42 41 45 37 31 10 358 355 11 6 353 310 294 271 281 230 228
178 209 152 156 141 164 210 210 221 146 146 215 242 107 96 116 161 142 191 218 227 348 292 260 194 277 256 255 273 130 110 127 118 101 91 84 80 77 74 64 62 54 63 73 65 43 31 34 45 54 46 27 29 29 35 35 36 39 41 46 46 43 38 32 33 36 34 39 40 43 38 36 24 22 16 1 15 17 7 24 4 348 313 304 287 264
330 173 205 158 141 212 224 258 152 149 187 263 196 88 86 75 117 196 184 17 332 48 268 227 195 209 280 268 6 217 119 166 158 120 98 87 79 81 75 60 58 56 49 57 71 61 42 33 38 40 53 44 32 26 32 40 40 40 39 42 45 41 36 32 35 37 38 37 37 39 35 36 23 18 13 20 16 11 9 17 11 5 360 336 317 298
204 292 175 118 195 212 170 154 121 128 176 100 71 55 3 23 342 21 91 106 47 276 245 212 212 177 277 275 208 143 210 163 132 112 110 99 85 71 64 68 50 52 60 53 51 47 48 35 40 40 52 42 34 29 31 33 35 38 39 41 48 41 38 33 34 37 38 37 36 37 33 33 29 21 24 22 16 9 11 9 1 5 353 3 346 329
332 9 132 254 167 93 105 108 14 78 123 115 68 107 24 331 17 39 348 43 128 266 261 235 206 191 190 282 341 319 21 147 152 150 146 123 104 91 81 71 66 61 56 52 52 49 39 39 37 40 44 39 33 32 31 30 32 36 36 37 46 38 34 33 33 38 38 39 37 37 35 34 29 28 27 25 18 10 10 4 2 356 4 2 360 5
255 207 240 272 249 162 129 84 308 21 18 82 67 46 303 281 30 325 34 299 207 219 250 290 135 60 240 221 344 17 15 40 70 121 133 124 119 114 108 106 83 74 74 64 56 52 39 38 32 33 35 33 30 29 29 32 34 34 36 36 44 37 28 32 34 41 40 41 36 33 33 33 30 32 33 29 25 16 14 8 7 8 7 0 6 359
279 283 197 241 335 209 135 154 265 313 247 118 159 144 110 261 211 239 255 213 302 296 253 309 33 233 246 321 32 54 47 65 90 92 101 119 128 132 130 112 90 68 65 63 64 56 55 44 35 36 37 38 32 27 29 32 35 33 38 34 44 37 29 29 38 40 45 43 41 38 37 33 29 30 29 29 27 19 19 14 13 12 7 4 1 352
315 327 280 153 254 186 167 197 186 176 156 196 142 153 184 156 156 261 212 231 237 225 275 280 47 236 145 231 32 74 70 82 89 102 106 102 113 125 121 107 88 75 53 70 70 63 50 43 40 39 32 34 34 30 30 32 29 32 32 31 35 34 26 30 31 36 43 43 43 45 44 42 36 31 29 27 25 19 16 11 13 10 7 11 357 355
214 232 252 220 174 142 177 270 110 95 62 227 166 98 81 238 168 234 209 205 250 320 313 290 200 201 122 103 86 60 80 75 81 98 108 112 111 114 98 100 103 92 87 67 69 58 48 45 38 35 35 29 28 27 28 29 28 31 31 35 40 42 32 31 31 32 35 38 39 42 44 43 45 44 41 37 28 21 17 10 11 5 6 3 358 355
62 274 271 4 41 142 171 149 138 139 199 256 100 200 209 183 111 342 340 240 88 354 251 164 305 12 89 93 66 77 81 73 86 99 111 122 127 118 127 128 116 110 96 83 72 71 60 47 34 41 39 31 26 25 25 29 26 28 23 24 25 27 33 35 36 37 37 36 39 34 34 33 36 38 36 32 24 18 8 7 3 6 360 359 6 358
187 251 290 102 216 276 191 149 163 95 145 85 131 238 246 107 110 146 213 315 221 222 262 239 220 273 147 289 148 142 103 132 135 137 138 130 131 136 161 161 161 147 149 139 132 120 106 81 53 38 38 42 36 26 16 10 18 26 28 24 25 19 19 12 14 19 22 26 33 33 31 31 32 31 33 31 21 11 10 6 4 354 5 5 355 358
115 291 283 245 161 272 357 67 352 341 43 170 188 228 123 266 301 306 91 268 262 247 276 272 251 248 224 232 140 204 160 172 175 170 150 155 184 180 186 195 203 198 160 145 139 122 98 73 55 41 40 29 36 29 28 21 30 34 22 22 30 25 17 10 10 13 11 17 16 15 17 20 22 27 30 24 17 8 11 5 359 0 352 348 356 355
30 175 296 306 134 207 23 81 232 266 347 43 58 11 226 107 180 213 199 190 171 274 255 280 214 252 221 206 183 178 177 169 170 173 188 188 187 186 186 190 194 191 183 155 128 121 112 93 86 78 55 33 10 360 356 357 24 40 34 26 19 14 10 6 2 3 1 356 3 1 5 6 11 7 8 8 12 9 12 350 346 344 354 349 347 344
258 135 239 292 318 19 269 159 202 169 177 3 41 303 343 284 221 121 290 167 190 196 219 260 266 273 272 219 161 174 175 178 168 172 183 199 205 199 193 188 195 195 174 158 138 122 113 119 118 311 256 284 307 319 331 19 28 342 45 30 49 73 349 20 337 346 320 324 319 344 336 335 349 350 348 350 353 354 344 347 346 353 352 336 347 335
86 341 207 304 358 225 231 238 168 122 105 137 171 212 179 173 286 265 264 148 129 202 232 227 254 273 279 4 166 157 171 160 173 169 189 203 200 193 193 197 188 189 186 165 171 152 161 191 213 240 274 288 351 331 335 315 351 344 332 248 308 12 323 40 325 298 315 311 302 300 281 268 279 277 290 303 296 304 311 315 323 332 348 348 336 350
148 152 101 235 227 231 219 254 213 147 172 192 173 247 171 144 115 124 253 255 292 226 147 193 109 276 232 302 134 155 152 170 181 176 193 202 185 187 198 192 199 187 183 184 176 174 175 184 200 212 226 255 235 248 269 286 277 261 266 287 278 207 275 240 266 275 289 292 301 294 292 292 294 296 301 305 299 296 301 298 301 305 316 316 315 321
67 94 42 293 290 295 305 297 30 36 112 69 358 35 101 187 182 183 215 170 231 270 277 273 262 218 279 314 117 133 161 174 180 187 188 163 171 191 181 177 171 159 166 171 172 172 191 196 213 224 249 262 263 259 257 246 251 255 256 250 252 231 248 261 251 259 279 299 303 293 310 294 274 277 275 277 276 273 276 278 279 282 277 275 278 287
79 284 126 316 301 331 326 346 18 339 51 86 232 275 128 127 99 159 105 239 223 200 234 245 255 263 337 14 22 87 102 158 180 226 162 162 196 180 179 184 176 175 176 180 182 200 206 205 221 226 225 216 231 239 260 256 254 249 247 246 233 238 242 230 239 220 258 262 270 291 296 291 291 286 294 290 295 281 277 272 272 272 265 268 269 264
117 202 113 146 207 245 265 254 265 32 312 280 224 349 267 153 272 348 337 260 225 223 99 198 265 251 196 227 237 152 172 240 262 236 230 181 176 177 182 183 182 170 194 194 196 181 190 201 208 216 218 212 209 206 218 232 240 242 240 237 214 216 230 227 225 214 219 218 213 241 246 254 264 264 258 269 281 286 290 292 295 292 280 268 276 275
156 223 141 181 188 231 242 183 204 95 3 359 287 287 278 292 239 204 217 232 245 253 257 238 238 270 282 269 195 201 185 224 231 230 205 216 204 189 179 177 180 184 175 166 164 183 168 158 190 198 201 195 203 203 207 208 225 231 231 262 255 233 241 256 209 222 216 235 226 257 265 261 261 254 252 253 255 262 265 266 269 275 278 283 280 281
84 246 241 167 216 233 233 214 205 76 230 241 261 283 292 276 259 184 205 242 104 338 260 252 249 240 251 271 282 284 212 242 248 242 222 210 192 179 182 172 172 147 181 158 161 162 182 199 201 211 215 218 223 223 229 233 227 235 242 247 261 260 255 276 320 324 333 341 339 335 322 305 276 268 267 267 266 260 255 255 250 246 249 248 254 257
141 202 251 132 260 260 249 259 341 3 227 234 258 268 266 268 270 262 253 228 222 229 257 265 273 269 267 265 271 250 225 233 247 254 258 192 165 153 139 155 171 185 212 208 227 220 219 228 227 235 239 235 237 234 238 247 260 263 265 253 250 258 258 275 320 322 347 351 340 328 325 327 328 323 318 312 305 301 294 282 270 267 266 260 257 253
85 280 240 121 236 272 276 301 306 266 270 272 260 256 257 259 260 252 244 238 217 236 249 262 270 266 263 272 286 261 251 234 192 126 101 125 157 155 155 180 187 208 218 232 243 249 265 275 282 277 275 288 325 343 352 352 345 333 322 312 325 340 343 10 8 19 0 351 333 324 324 321 319 320 319 319 317 315 312 308 305 303 301 299 293 287
105 271 97 24 101 287 271 83 358 327 272 283 276 263 257 259 268 259 255 251 234 253 251 257 266 269 267 304 273 265 131 106 76 80 126 157 153 162 169 191 200 204 214 211 198 153 105 78 63 61 59 61 69 58 32 6 345 343 354 356 2 14 359 23 10 0 350 336 325 321 321 323 316 312 309 304 307 307 309 310 310 310 308 307 305 302
78 249 57 118 62 298 303 111 272 283 292 262 271 268 260 253 257 251 248 234 232 238 246 258 257 260 280 303 49 59 81 97 115 105 105 116 134 140 155 185 189 208 205 173 131 112 94 91 91 86 87 79 66 50 31 5 352 18 12 6 18 356 358 8 0 347 331 322 326 330 326 313 307 304 301 305 303 305 306 310 312 313 313 311 310 307
163 136 167 101 290 258 284 115 158 220 303 306 255 252 262 253 236 256 250 231 221 224 236 234 246 244 249 250 242 255 110 119 110 133 110 107 170 166 184 204 214 213 199 165 132 116 122 122 124 123 120 104 67 45 5 15 26 22 1 10 341 349 0 353 349 343 338 333 329 315 308 306 304 305 307 309 310 309 313 313 313 312 313 312 312 311
142 150 186 184 232 234 220 140 87 135 251 244 287 133 190 229 220 224 244 246 243 202 213 212 238 245 226 209 210 201 180 194 166 218 181 153 201 258 258 217 230 204 182 167 153 135 132 137 130 133 134 127 109 78 41 55 48 6 9 2 360 6 355 351 342 337 320 315 315 314 312 310 310 306 307 313 318 319 315 313 308 307 307 308 309 306
187 186 189 171 151 228 124 100 223 225 243 265 170 185 160 194 184 226 245 246 251 249 254 274 266 207 209 202 198 194 192 178 168 140 243 228 199 223 237 249 198 178 166 165 154 143 142 132 122 113 77 56 55 50 48 36 22 2 10 6 356 355 353 337 326 318 316 314 316 320 317 313 310 311 316 318 316 312 307 304 305 306 309 310 307 306
191 168 158 227 132 40 125 189 228 235 249 333 277 188 188 146 213 249 289 266 252 237 233 238 231 218 225 222 197 173 142 179 113 238 232 265 222 218 200 177 182 173 179 198 166 168 146 142 135 132 110 77 67 59 50 32 8 13 357 357 353 340 334 322 312 308 310 309 314 317 320 324 322 320 319 316 313 309 308 310 311 312 315 311 303 299
176 152 162 232 187 213 217 226 237 323 323 290 282 272 220 238 242 209 258 264 244 212 157 188 243 234 181 182 157 142 55 52 35 318 291 145 123 185 154 181 184 208 196 197 161 149 144 147 143 127 99 84 76 61 38 13 14 8 354 348 335 328 318 315 308 308 310 310 318 325 331 332 325 320 318 317 315 313 311 311 309 306 308 299 294 292
178 180 199 160 259 205 184 251 283 286 252 265 242 181 45 192 137 148 122 294 285 270 206 162 203 183 151 149 150 122 65 52 316 285 230 272 188 139 217 188 224 209 172 141 120 127 143 127 95 89 103 100 79 63 35 19 19 5 344 327 319 317 310 305 300 305 311 321 330 329 329 329 325 319 318 317 313 310 307 305 298 294 301 296 298 295
316 187 192 200 228 229 217 216 228 239 246 175 240 200 241 177 125 111 69 275 269 226 246 186 200 175 171 159 174 102 68 221 248 240 251 241 276 230 185 265 203 178 160 153 143 136 119 106 112 108 93 86 71 38 32 23 20 353 326 314 311 308 301 302 304 320 329 326 326 325 326 324 320 315 312 308 305 305 302 301 299 298 299 293 291 291
148 156 160 219 220 218 226 235 237 222 247 265 197 205 211 149 113 64 325 277 254 230 197 167 178 177 187 178 152 136 147 203 245 257 219 211 204 219 185 262 137 138 133 114 102 116 120 121 93 75 78 80 69 49 33 20 360 331 311 307 304 302 299 302 322 331 325 319 318 319 314 313 309 304 302 301 299 297 294 297 298 297 297 294 289 289
144 299 203 213 218 227 227 248 283 272 236 173 185 216 222 203 81 202 238 239 232 215 209 176 179 182 170 167 164 167 228 194 208 233 221 199 250 306 261 206 158 157 147 130 120 115 97 88 94 96 98 92 60 35 21 1 344 315 303 300 300 292 300 318 327 320 315 313 308 305 303 300 298 298 296 292 293 294 293 293 293 295 293 291 292 287
343 110 311 273 227 226 226 231 239 264 233 172 260 176 170 85 227 214 233 199 160 207 210 185 183 198 175 179 189 204 232 230 229 256 246 219 198 228 184 140 120 97 95 106 110 102 105 93 90 88 85 79 45 39 12 352 328 304 303 301 289 292 315 321 313 309 306 303 300 298 296 295 292 288 290 293 293 293 290 287 285 287 290 287 288 289
192 148 214 190 204 10 158 243 257 253 260 166 146 72 251 140 229 209 190 225 186 190 194 213 197 209 178 212 214 219 230 246 225 220 218 212 223 188 160 163 154 155 148 133 90 82 111 107 96 99 104 51 36 29 351 352 316 304 303 295 294 311 313 307 306 302 299 298 296 296 294 293 291 292 293 291 290 288 290 292 290 287 287 287 287 285
200 103 233 231 177 171 188 208 209 210 210 175 142 184 219 210 194 172 150 219 227 200 204 201 217 212 205 200 217 231 227 226 245 234 236 240 216 148 144 145 139 123 109 95 109 109 93 96 103 93 64 353 28 12 348 331 309 303 300 292 304 310 304 301 298 296 296 294 293 294 294 293 293 290 288 289 290 288 287 291 287 286 285 285 286 290
202 186 180 199 205 162 200 210 232 205 189 193 180 206 216 226 208 193 182 197 190 226 204 198 217 226 212 201 210 213 223 206 205 203 192 234 203 172 167 170 159 152 147 140 117 102 85 90 38 348 336 310 9 338 331 323 315 302 293 294 312 305 303 300 299 298 296 294 294 294 293 294 292 292 290 286 287 292 293 290 291 292 288 287 288 287
261 218 291 21 238 130 267 212 238 247 251 198 221 212 212 233 240 209 194 209 224 211 187 198 219 221 217 202 202 225 209 207 205 217 208 200 166 168 141 129 115 121 122 118 117 95 98 66 10 341 321 322 300 317 313 319 301 295 289 302 303 300 299 300 302 300 297 297 297 298 299 299 296 289 285 286 287 287 287 289 295 293 294 291 288 290
253 243 183 215 251 357 281 199 189 220 231 225 223 234 244 236 238 213 204 212 229 223 216 216 213 216 211 195 199 204 215 204 212 222 197 171 175 174 166 155 155 152 147 128 136 117 51 23 343 323 317 312 305 301 303 295 279 274 290 295 297 298 300 300 300 299 300 301 303 300 299 299 301 300 298 301 298 290 286 290 288 288 289 289 288 286
288 212 212 238 240 216 234 222 226 229 229 238 219 218 229 233 233 237 226 229 233 237 225 223 214 229 200 199 199 193 210 207 204 224 197 187 186 180 169 162 158 137 127 130 127 97 65 8 324 306 304 302 303 310 295 290 284 283 285 287 290 294 298 299 299 301 303 304 304 302 303 300 292 296 306 303 299 298 296 291 288 286 285 286 285 286
212 101 225 179 201 242 258 247 245 254 267 265 246 220 227 227 225 239 238 239 245 250 245 236 208 205 192 204 183 183 202 222 210 210 200 181 176 177 177 160 152 145 139 111 95 65 11 318 300 286 294 293 302 302 296 283 283 284 287 293 297 298 300 299 300 299 298 299 302 301 300 297 300 304 303 301 295 288 287 291 291 286 279 271 263 270
177 244 220 93 232 199 205 230 214 226 249 250 250 238 230 228 229 241 248 246 238 234 225 214 226 225 201 185 179 180 196 220 212 175 191 190 187 172 155 146 138 130 114 102 90 28 318 284 271 292 294 294 304 301 294 288 287 290 290 293 291 295 297 301 303 302 300 302 301 301 302 302 303 304 301 297 299 299 294 287 295 293 293 292 293 295
217 231 206 207 218 237 235 236 220 220 246 242 243 240 217 223 218 227 236 239 236 223 207 198 199 211 222 230 196 180 201 199 204 169 179 177 174 154 146 144 143 124 80 41 354 323 303 286 290 292 294 295 300 296 295 297 298 298 294 290 293 294 293 298 302 302 301 305 304 305 306 305 304 303 299 296 297 297 298 301 301 300 298 297 298 299